| time (UTC) | temp C | wind direction | speed KPH | gust KPH | rain 1hr cm | rain 24hr cm | rain mn cm | humidity % | barometer mb |
| 20260503234357 | 14 | 307 | 0.0 | 0.0 | 0.00 | 0.00 | 0.00 | 59 | |
| 20260503233857 | 14 | 307 | 0.0 | 0.0 | 0.00 | 0.00 | 0.00 | 58 | |
| 20260503233357 | 15 | 307 | 0.0 | 0.0 | 0.00 | 0.00 | 0.00 | 59 | |
| 20260503232856 | 15 | 307 | 0.0 | 0.0 | 0.00 | 0.00 | 0.00 | 58 | |
| 20260503232356 | 15 | 307 | 0.0 | 0.0 | 0.00 | 0.00 | 0.00 | 58 | |
| 20260503231856 | 15 | 307 | 0.0 | 0.0 | 0.00 | 0.00 | 0.00 | 57 | |
| 20260503231356 | 15 | 307 | 0.0 | 0.0 | 0.00 | 0.00 | 0.00 | 57 | |
| 20260503230855 | 15 | 307 | 0.0 | 0.0 | 0.00 | 0.00 | 0.00 | 57 | |
| 20260503230355 | 15 | 307 | 0.0 | 0.0 | 0.00 | 0.00 | 0.00 | 56 | |
| 20260503225855 | 15 | 307 | 0.0 | 0.0 | 0.00 | 0.00 | 0.00 | 56 | |
| 20260503225354 | 15 | 307 | 0.0 | 0.0 | 0.00 | 0.00 | 0.00 | 55 | |
| 20260503224854 | 15 | 307 | 0.0 | 0.0 | 0.00 | 0.00 | 0.00 | 55 | |
| 20260503224354 | 15 | 307 | 0.0 | 0.0 | 0.00 | 0.00 | 0.00 | 55 | |
| 20260503223853 | 15 | 307 | 0.0 | 0.0 | 0.00 | 0.00 | 0.00 | 54 | |
| 20260503223353 | 15 | 307 | 0.0 | 0.0 | 0.00 | 0.00 | 0.00 | 54 | |
| 20260503222853 | 15 | 307 | 0.0 | 0.0 | 0.00 | 0.00 | 0.00 | 53 | |
| 20260503222353 | 16 | 307 | 0.0 | 0.0 | 0.00 | 0.00 | 0.00 | 53 | |
| 20260503221852 | 16 | 307 | 0.0 | 1.6 | 0.00 | 0.00 | 0.00 | 52 | |
| 20260503221352 | 16 | 355 | 0.0 | 0.0 | 0.00 | 0.00 | 0.00 | 51 | |
| 20260503220852 | 16 | 355 | 0.0 | 0.0 | 0.00 | 0.00 | 0.00 | 51 | |
| 20260503220351 | 16 | 355 | 0.0 | 1.6 | 0.00 | 0.00 | 0.00 | 51 | |
| 20260503215851 | 16 | 343 | 0.0 | 3.2 | 0.00 | 0.00 | 0.00 | 51 | |
| 20260503215351 | 16 | 219 | 0.0 | 3.2 | 0.00 | 0.00 | 0.00 | 51 | |
| 20260503214850 | 16 | 254 | 3.2 | 4.8 | 0.00 | 0.00 | 0.00 | 51 | |
| 20260503214350 | 16 | 195 | 1.6 | 6.4 | 0.00 | 0.00 | 0.00 | 52 | |
| 20260503213850 | 17 | 243 | 1.6 | 3.2 | 0.00 | 0.00 | 0.00 | 51 | |
| 20260503213350 | 17 | 171 | 0.0 | 0.0 | 0.00 | 0.00 | 0.00 | 51 | |
| 20260503212849 | 17 | 171 | 0.0 | 1.6 | 0.00 | 0.00 | 0.00 | 51 | |
| 20260503212349 | 17 | 209 | 0.0 | 4.8 | 0.00 | 0.00 | 0.00 | 51 | |
| 20260503211849 | 17 | 223 | 0.0 | 6.4 | 0.00 | 0.00 | 0.00 | 51 | |
| 20260503211348 | 17 | 225 | 0.0 | 8.0 | 0.00 | 0.00 | 0.00 | 51 | |
| 20260503210848 | 17 | 208 | 0.0 | 6.4 | 0.00 | 0.00 | 0.00 | 51 | |
| 20260503210348 | 17 | 199 | 0.0 | 3.2 | 0.00 | 0.00 | 0.00 | 51 | |
| 20260503205848 | 17 | 147 | 0.0 | 3.2 | 0.00 | 0.00 | 0.00 | 50 | |
| 20260503205347 | 17 | 246 | 0.0 | 9.7 | 0.00 | 0.00 | 0.00 | 50 | |
| 20260503204847 | 17 | 327 | 0.0 | 4.8 | 0.00 | 0.00 | 0.00 | 50 | |
| 20260503204347 | 17 | 239 | 0.0 | 8.0 | 0.00 | 0.00 | 0.00 | 50 | |
| 20260503203846 | 17 | 270 | 6.4 | 6.4 | 0.00 | 0.00 | 0.00 | 51 | |
| 20260503203346 | 17 | 220 | 0.0 | 6.4 | 0.00 | 0.00 | 0.00 | 51 | |
| 20260503202846 | 17 | 225 | 4.8 | 8.0 | 0.00 | 0.00 | 0.00 | 50 | |
| 20260503202345 | 17 | 199 | 0.0 | 3.2 | 0.00 | 0.00 | 0.00 | 51 | |
| 20260503201845 | 17 | 212 | 0.0 | 0.0 | 0.00 | 0.00 | 0.00 | 51 | |
| 20260503201345 | 17 | 192 | 0.0 | 6.4 | 0.00 | 0.00 | 0.00 | 51 | |
| 20260503200845 | 17 | 239 | 0.0 | 6.4 | 0.00 | 0.00 | 0.00 | 51 | |
| 20260503200344 | 17 | 316 | 0.0 | 8.0 | 0.00 | 0.00 | 0.00 | 51 | |
| 20260503195844 | 17 | 217 | 0.0 | 11.3 | 0.00 | 0.00 | 0.00 | 50 | |
| 20260503195344 | 17 | 219 | 3.2 | 12.9 | 0.00 | 0.00 | 0.00 | 51 | |
| 20260503194843 | 18 | 248 | 3.2 | 9.7 | 0.00 | 0.00 | 0.00 | 50 | |
| 20260503194343 | 18 | 288 | 9.7 | 9.7 | 0.00 | 0.00 | 0.00 | 49 | |
| 20260503193843 | 18 | 265 | 6.4 | 12.9 | 0.00 | 0.00 | 0.00 | 48 | |
| 20260503193343 | 18 | 217 | 6.4 | 16.1 | 0.00 | 0.00 | 0.00 | 46 | |
| 20260503192842 | 18 | 274 | 4.8 | 22.5 | 0.00 | 0.00 | 0.00 | 45 | |
| 20260503192342 | 18 | 236 | 12.9 | 24.1 | 0.00 | 0.00 | 0.00 | 43 | |
| 20260503191842 | 19 | 246 | 8.0 | 25.7 | 0.00 | 0.00 | 0.00 | 42 | |
| 20260503191341 | 19 | 253 | 6.4 | 19.3 | 0.00 | 0.00 | 0.00 | 41 | |
| 20260503190841 | 20 | 223 | 9.7 | 19.3 | 0.00 | 0.00 | 0.00 | 40 | |
| 20260503190341 | 20 | 36 | 0.0 | 12.9 | 0.00 | 0.00 | 0.00 | 42 | |
| 20260503185840 | 20 | 244 | 11.3 | 17.7 | 0.00 | 0.00 | 0.00 | 41 | |
| 20260503185340 | 20 | 270 | 4.8 | 16.1 | 0.00 | 0.00 | 0.00 | 42 | |
| 20260503184840 | 20 | 165 | 0.0 | 12.9 | 0.00 | 0.00 | 0.00 | 42 | |
| 20260503184340 | 20 | 101 | 1.6 | 9.7 | 0.00 | 0.00 | 0.00 | 42 | |
| 20260503183839 | 20 | 233 | 4.8 | 14.5 | 0.00 | 0.00 | 0.00 | 41 | |
| 20260503183339 | 20 | 268 | 3.2 | 14.5 | 0.00 | 0.00 | 0.00 | 41 | |
| 20260503182839 | 20 | 194 | 4.8 | 19.3 | 0.00 | 0.00 | 0.00 | 40 | |
| 20260503182338 | 20 | 213 | 3.2 | 9.7 | 0.00 | 0.00 | 0.00 | 41 | |
| 20260503181838 | 20 | 237 | 3.2 | 14.5 | 0.00 | 0.00 | 0.00 | 40 | |
| 20260503181338 | 21 | 258 | 0.0 | 11.3 | 0.00 | 0.00 | 0.00 | 39 | |
| 20260503180838 | 21 | 36 | 1.6 | 6.4 | 0.00 | 0.00 | 0.00 | 38 | |
| 20260503180337 | 21 | 327 | 0.0 | 12.9 | 0.00 | 0.00 | 0.00 | 37 | |
| 20260503175837 | 21 | 274 | 1.6 | 12.9 | 0.00 | 0.00 | 0.00 | 37 | |
| 20260503175337 | 21 | 185 | 0.0 | 8.0 | 0.00 | 0.00 | 0.00 | 37 | |
| 20260503174836 | 21 | 219 | 0.0 | 14.5 | 0.00 | 0.00 | 0.00 | 36 | |
| 20260503174336 | 21 | 265 | 1.6 | 14.5 | 0.00 | 0.00 | 0.00 | 35 | |
| 20260503173836 | 22 | 278 | 1.6 | 6.4 | 0.00 | 0.00 | 0.00 | 35 | |
| 20260503173335 | 22 | 285 | 0.0 | 6.4 | 0.00 | 0.00 | 0.00 | 35 | |
| 20260503172835 | 22 | 261 | 0.0 | 6.4 | 0.00 | 0.00 | 0.00 | 35 | |
| 20260503172335 | 22 | 274 | 3.2 | 12.9 | 0.00 | 0.00 | 0.00 | 34 | |
| 20260503171835 | 22 | 262 | 3.2 | 8.0 | 0.00 | 0.00 | 0.00 | 33 | |
| 20260503171334 | 22 | 288 | 0.0 | 11.3 | 0.00 | 0.00 | 0.00 | 32 | |
| 20260503170834 | 22 | 217 | 3.2 | 11.3 | 0.00 | 0.00 | 0.00 | 32 | |
| 20260503170334 | 23 | 247 | 8.0 | 8.0 | 0.00 | 0.00 | 0.00 | 32 | |
| 20260503150827 | 24 | 239 | 0.0 | 12.9 | 0.00 | 0.00 | 0.00 | 23 | |
| 20260503150327 | 25 | 258 | 6.4 | 19.3 | 0.00 | 0.00 | 0.00 | 22 | |
| 20260503131320 | 24 | 225 | 0.0 | 14.5 | 0.00 | 0.00 | 0.00 | 31 | |
| 20260503130820 | 23 | 196 | 1.6 | 9.7 | 0.00 | 0.00 | 0.00 | 30 | |
| 20260503130320 | 23 | 247 | 0.0 | 8.0 | 0.00 | 0.00 | 0.00 | 30 | |
| 20260503110813 | 23 | 255 | 1.6 | 20.9 | 0.00 | 0.00 | 0.00 | 25 | |
| 20260503110312 | 23 | 234 | 16.1 | 16.1 | 0.00 | 0.00 | 0.00 | 26 | |
| 20260503090305 | 23 | 265 | 0.0 | 4.8 | 0.00 | 0.00 | 0.00 | 32 | |
| 20260503081302 | 20 | 195 | 0.0 | 1.6 | 0.00 | 0.00 | 0.00 | 45 | |
| 20260503080802 | 20 | 222 | 0.0 | 3.2 | 0.00 | 0.00 | 0.00 | 46 | |
| 20260503080302 | 20 | 213 | 1.6 | 3.2 | 0.00 | 0.00 | 0.00 | 45 | |
| 20260503072800 | 17 | 225 | 0.0 | 0.0 | 0.00 | 0.00 | 0.00 | 58 | |
| 20260503072300 | 16 | 225 | 0.0 | 0.0 | 0.00 | 0.00 | 0.00 | 59 | |
| 20260503071759 | 16 | 225 | 0.0 | 0.0 | 0.00 | 0.00 | 0.00 | 61 | |
| 20260503071259 | 16 | 225 | 0.0 | 0.0 | 0.00 | 0.00 | 0.00 | 62 | |
| 20260503070759 | 16 | 225 | 0.0 | 0.0 | 0.00 | 0.00 | 0.00 | 64 | |
| 20260503070258 | 16 | 225 | 0.0 | 0.0 | 0.00 | 0.00 | 0.00 | 65 | |
| 20260503060255 | 14 | 330 | 0.0 | 0.0 | 0.00 | 0.00 | 0.00 | 69 | |
| 20260503054754 | 13 | 330 | 0.0 | 0.0 | 0.00 | 0.00 | 0.00 | 71 | |
| 20260503054254 | 13 | 330 | 0.0 | 0.0 | 0.00 | 0.00 | 0.00 | 71 | |
| 20260503053753 | 13 | 330 | 0.0 | 0.0 | 0.00 | 0.00 | 0.00 | 72 | |
| 20260503053253 | 13 | 330 | 0.0 | 0.0 | 0.00 | 0.00 | 0.00 | 72 | |
| 20260503052753 | 13 | 330 | 0.0 | 0.0 | 0.00 | 0.00 | 0.00 | 73 | |
| 20260503052252 | 13 | 330 | 0.0 | 0.0 | 0.00 | 0.00 | 0.00 | 73 | |
| 20260503051752 | 13 | 330 | 0.0 | 0.0 | 0.00 | 0.00 | 0.00 | 73 | |
| 20260503051252 | 13 | 330 | 0.0 | 0.0 | 0.00 | 0.00 | 0.00 | 74 | |
| 20260503050752 | 13 | 330 | 0.0 | 0.0 | 0.00 | 0.00 | 0.00 | 74 | |
| 20260503050251 | 13 | 330 | 0.0 | 0.0 | 0.00 | 0.00 | 0.00 | 74 | |
| 20260503045751 | 12 | 330 | 0.0 | 0.0 | 0.00 | 0.00 | 0.00 | 75 | |
| 20260503045251 | 13 | 348 | 0.0 | 1.6 | 0.00 | 0.00 | 0.00 | 75 | |
| 20260503044750 | 13 | 244 | 0.0 | 0.0 | 0.00 | 0.00 | 0.00 | 75 | |
| 20260503044250 | 13 | 244 | 0.0 | 0.0 | 0.00 | 0.00 | 0.00 | 75 | |
| 20260503043750 | 13 | 244 | 0.0 | 0.0 | 0.00 | 0.00 | 0.00 | 76 | |
| 20260503043250 | 12 | 244 | 0.0 | 0.0 | 0.00 | 0.00 | 0.00 | 76 | |
| 20260503042749 | 13 | 244 | 0.0 | 0.0 | 0.00 | 0.00 | 0.00 | 75 | |
| 20260503042249 | 12 | 244 | 0.0 | 0.0 | 0.00 | 0.00 | 0.00 | 75 | |
| 20260503041749 | 12 | 244 | 0.0 | 0.0 | 0.00 | 0.00 | 0.00 | 74 | |
| 20260503041248 | 12 | 244 | 0.0 | 0.0 | 0.00 | 0.00 | 0.00 | 73 | |
| 20260503040748 | 12 | 244 | 0.0 | 1.6 | 0.00 | 0.00 | 0.00 | 72 | |
| 20260503040248 | 12 | 233 | 0.0 | 1.6 | 0.00 | 0.00 | 0.00 | 71 | |
| 20260503035747 | 12 | 323 | 0.0 | 0.0 | 0.00 | 0.00 | 0.00 | 71 | |
| 20260503035247 | 12 | 323 | 0.0 | 0.0 | 0.00 | 0.00 | 0.00 | 71 | |
| 20260503034747 | 12 | 323 | 0.0 | 0.0 | 0.00 | 0.00 | 0.00 | 71 | |
| 20260503034247 | 12 | 323 | 0.0 | 0.0 | 0.00 | 0.00 | 0.00 | 71 | |
| 20260503033746 | 12 | 323 | 0.0 | 0.0 | 0.00 | 0.00 | 0.00 | 70 | |
| 20260503033246 | 12 | 323 | 0.0 | 1.6 | 0.00 | 0.00 | 0.00 | 70 | |
| 20260503032746 | 12 | 333 | 1.6 | 1.6 | 0.00 | 0.00 | 0.00 | 70 | |
| 20260503032245 | 12 | 310 | 0.0 | 0.0 | 0.00 | 0.00 | 0.00 | 69 | |
| 20260503031745 | 12 | 310 | 0.0 | 0.0 | 0.00 | 0.00 | 0.00 | 69 | |
| 20260503031245 | 12 | 310 | 0.0 | 0.0 | 0.00 | 0.00 | 0.00 | 69 | |
| 20260503030744 | 12 | 310 | 0.0 | 0.0 | 0.00 | 0.00 | 0.00 | 69 | |
| 20260503030244 | 13 | 310 | 0.0 | 0.0 | 0.00 | 0.00 | 0.00 | 69 | |
| 20260503025744 | 13 | 310 | 0.0 | 0.0 | 0.00 | 0.00 | 0.00 | 69 | |
| 20260503025244 | 13 | 310 | 0.0 | 0.0 | 0.00 | 0.00 | 0.00 | 68 | |
| 20260503024743 | 13 | 310 | 0.0 | 0.0 | 0.00 | 0.00 | 0.00 | 67 | |
| 20260503024243 | 13 | 310 | 0.0 | 0.0 | 0.00 | 0.00 | 0.00 | 67 | |
| 20260503023743 | 13 | 310 | 0.0 | 0.0 | 0.00 | 0.00 | 0.00 | 67 | |
| 20260503023242 | 13 | 310 | 0.0 | 0.0 | 0.00 | 0.00 | 0.00 | 67 | |
| 20260503022742 | 13 | 310 | 0.0 | 0.0 | 0.00 | 0.00 | 0.00 | 67 | |
| 20260503022242 | 13 | 310 | 0.0 | 0.0 | 0.00 | 0.00 | 0.00 | 67 | |
| 20260503021742 | 13 | 310 | 0.0 | 0.0 | 0.00 | 0.00 | 0.00 | 68 | |
| 20260503021241 | 13 | 310 | 0.0 | 0.0 | 0.00 | 0.00 | 0.00 | 67 | |
| 20260503020741 | 13 | 310 | 0.0 | 0.0 | 0.00 | 0.00 | 0.00 | 67 | |
| 20260503020241 | 13 | 310 | 0.0 | 0.0 | 0.00 | 0.00 | 0.00 | 67 | |
| 20260503015740 | 13 | 310 | 0.0 | 0.0 | 0.00 | 0.00 | 0.00 | 67 | |
| 20260503015240 | 13 | 310 | 0.0 | 0.0 | 0.00 | 0.00 | 0.00 | 67 | |
| 20260503014740 | 14 | 310 | 0.0 | 0.0 | 0.00 | 0.00 | 0.00 | 67 | |
| 20260503014239 | 14 | 310 | 0.0 | 0.0 | 0.00 | 0.00 | 0.00 | 66 | |
| 20260503013739 | 14 | 310 | 0.0 | 0.0 | 0.00 | 0.00 | 0.00 | 65 | |
| 20260503013239 | 14 | 310 | 0.0 | 0.0 | 0.00 | 0.00 | 0.00 | 65 | |
| 20260503012739 | 14 | 310 | 0.0 | 0.0 | 0.00 | 0.00 | 0.00 | 66 | |
| 20260503012238 | 14 | 310 | 0.0 | 0.0 | 0.00 | 0.00 | 0.00 | 65 | |
| 20260503011738 | 14 | 310 | 0.0 | 0.0 | 0.00 | 0.00 | 0.00 | 65 | |
| 20260503011238 | 14 | 310 | 0.0 | 0.0 | 0.00 | 0.00 | 0.00 | 65 | |
| 20260503010737 | 14 | 310 | 0.0 | 0.0 | 0.00 | 0.00 | 0.00 | 65 | |
| 20260503010237 | 14 | 310 | 0.0 | 0.0 | 0.00 | 0.00 | 0.00 | 65 | |
| 20260503005737 | 14 | 310 | 0.0 | 0.0 | 0.00 | 0.00 | 0.00 | 64 | |
| 20260503005237 | 14 | 310 | 0.0 | 0.0 | 0.00 | 0.00 | 0.00 | 64 | |
| 20260503004736 | 15 | 310 | 0.0 | 0.0 | 0.00 | 0.00 | 0.00 | 64 | |
| 20260503004236 | 15 | 310 | 0.0 | 0.0 | 0.00 | 0.00 | 0.00 | 64 | |
| 20260503003736 | 15 | 310 | 0.0 | 0.0 | 0.00 | 0.00 | 0.00 | 64 | |
| 20260503003235 | 15 | 310 | 0.0 | 0.0 | 0.00 | 0.00 | 0.00 | 63 | |
| 20260503002735 | 15 | 310 | 0.0 | 0.0 | 0.00 | 0.00 | 0.00 | 64 | |
| 20260503002235 | 15 | 310 | 0.0 | 0.0 | 0.00 | 0.00 | 0.00 | 63 | |
| 20260503001734 | 15 | 310 | 0.0 | 0.0 | 0.00 | 0.00 | 0.00 | 63 | |
| 20260503001234 | 15 | 310 | 0.0 | 0.0 | 0.00 | 0.00 | 0.00 | 63 | |
| 20260503000734 | 15 | 310 | 0.0 | 0.0 | 0.00 | 0.00 | 0.00 | 63 | |
| 20260503000234 | 15 | 310 | 0.0 | 0.0 | 0.00 | 0.00 | 0.00 | 62 | |
| 20260502235733 | 15 | 336 | 0.0 | 0.0 | 0.00 | 0.00 | 0.00 | 61 | |
| 20260502235233 | 15 | 336 | 0.0 | 0.0 | 0.00 | 0.00 | 0.00 | 61 |